Weather History for Belmar-Farmingdale, NJ

Change the Weather History Date:

Monday, February 27, 2012

  Actual Average Record
Temperature  
Mean Temperature 44 °F -  
Max Temperature 57 °F 43 °F 73 °F (1997)
Min Temperature 30 °F 29 °F 12 °F (2014)
Degree Days  
Heating Degree Days 22    
Moisture  
Dew Point 30 °F    
Average Humidity 62    
Maximum Humidity 93    
Minimum Humidity 31    
Precipitation  
Precipitation 0.00 in - - ()
Sea Level Pressure  
Sea Level Pressure 30.29 in    
Wind  
Wind Speed 7 mph (SSW)    
Max Wind Speed 18 mph    
Max Gust Speed 25 mph    
Visibility 10 miles    
Events      
Averages and records for this station are not official NWS values.
T = Trace of Precipitation, MM = Missing Value Source: NWS Daily Summary

Daily Weather History Graph

Daily Weather History Graph

Search for Another Location

Airport:

Trip Planner

Search our weather history database for the weather conditions in past years. The results will help you decide how hot, cold, wet, or windy it might be!

Date:

Astronomy

Feb. 27, 2012 Rise Set
Actual Time 6:33 AM EST 5:45 PM EST
Civil Twilight 6:06 AM EST 6:12 PM EST
Nautical Twilight 5:34 AM EST 6:44 PM EST
Astronomical Twilight 5:03 AM EST 7:15 PM EST
Moon 9:00 AM EST (2/27) 11:37 PM EST (2/27)
Length of Visible Light 12h 06m
Length of Day
11h 11m
Waxing Crescent, 29% of the Moon is Illuminated
Feb 27
Waxing Crescent
Feb 29
First Quarter
Mar 8
Full
Mar 14
Last Quarter
Mar 22
New

Hourly Weather History & Observations

Time (EST) Temp. Windchill Dew Point Humidity Pressure Visibility Wind Dir Wind Speed Gust Speed Precip Events Conditions
12:15 AM 33.8 °F 30.8 °F 21.2 °F 60% 30.44 in 10.0 mi WSW 3.5 mph - N/A   Clear
12:35 AM 33.8 °F 29.6 °F 23.0 °F 65% 30.44 in 10.0 mi SW 4.6 mph - N/A   Clear
12:55 AM 32.0 °F 27.5 °F 21.2 °F 64% 30.44 in 10.0 mi SW 4.6 mph - N/A   Clear
1:15 AM 32.0 °F 28.7 °F 24.8 °F 75% 30.44 in 10.0 mi SSW 3.5 mph - N/A   Clear
1:35 AM 30.2 °F 25.4 °F 24.8 °F 80% 30.44 in 10.0 mi SSW 4.6 mph - N/A   Clear
1:55 AM 30.2 °F 25.4 °F 24.8 °F 80% 30.44 in 10.0 mi SSW 4.6 mph - N/A   Clear
2:15 AM 30.2 °F 25.4 °F 26.6 °F 86% 30.44 in 10.0 mi SSW 4.6 mph - N/A   Clear
2:35 AM 30.2 °F 24.3 °F 26.6 °F 86% 30.43 in 10.0 mi SSW 5.8 mph - N/A   Clear
2:55 AM 30.2 °F 25.4 °F 26.6 °F 86% 30.43 in 10.0 mi SSW 4.6 mph - N/A   Clear
3:15 AM 32.0 °F 27.5 °F 26.6 °F 80% 30.43 in 10.0 mi SSW 4.6 mph - N/A   Clear
3:35 AM 30.2 °F 25.4 °F 26.6 °F 86% 30.43 in 10.0 mi SSW 4.6 mph - N/A   Clear
3:55 AM 30.2 °F 25.4 °F 26.6 °F 86% 30.43 in 10.0 mi SSW 4.6 mph - N/A   Clear
4:15 AM 30.2 °F 25.4 °F 26.6 °F 86% 30.43 in 10.0 mi SSW 4.6 mph - N/A   Clear
4:35 AM 30.2 °F 25.4 °F 26.6 °F 86% 30.43 in 10.0 mi SSW 4.6 mph - N/A   Clear
4:55 AM 30.2 °F 26.7 °F 26.6 °F 86% 30.43 in 10.0 mi South 3.5 mph - N/A   Clear
5:15 AM 30.2 °F 26.7 °F 26.6 °F 86% 30.43 in 10.0 mi South 3.5 mph - N/A   Clear
5:35 AM 30.2 °F 25.4 °F 26.6 °F 86% 30.43 in 10.0 mi South 4.6 mph - N/A   Clear
5:55 AM 30.2 °F 24.3 °F 26.6 °F 86% 30.43 in 10.0 mi South 5.8 mph - N/A   Clear
6:15 AM 30.2 °F 25.4 °F 26.6 °F 86% 30.43 in 10.0 mi SSW 4.6 mph - N/A   Clear
6:35 AM 30.2 °F 26.7 °F 26.6 °F 86% 30.42 in 10.0 mi SSW 3.5 mph - N/A   Clear
6:55 AM 30.2 °F 25.4 °F 28.4 °F 93% 30.42 in 10.0 mi South 4.6 mph - N/A   Clear
7:15 AM 33.8 °F 28.6 °F 30.2 °F 87% 30.42 in 9.0 mi South 5.8 mph - N/A   Clear
7:35 AM 33.8 °F 29.6 °F 30.2 °F 87% 30.41 in 10.0 mi South 4.6 mph - N/A   Clear
7:55 AM 35.6 °F 29.9 °F 32.0 °F 87% 30.41 in 10.0 mi South 6.9 mph - N/A   Clear
8:15 AM 39.2 °F 33.6 °F 33.8 °F 81% 30.40 in 10.0 mi South 8.1 mph - N/A   Clear
8:35 AM 41.0 °F 34.7 °F 35.6 °F 81% 30.40 in 10.0 mi South 10.4 mph - N/A   Clear
8:55 AM 44.6 °F 39.2 °F 33.8 °F 66% 30.39 in 10.0 mi SSW 10.4 mph 18.4 mph N/A   Clear
9:15 AM 44.6 °F 38.8 °F 33.8 °F 66% 30.38 in 10.0 mi SSW 11.5 mph 17.3 mph N/A   Clear
9:55 AM 46.4 °F 40.4 °F 32.0 °F 57% 30.36 in 10.0 mi SSW 13.8 mph 19.6 mph N/A   Clear
10:15 AM 48.2 °F - 30.2 °F 50% 30.35 in 10.0 mi SSW 9.2 mph 16.1 mph N/A   Clear
10:35 AM 50.0 °F - 28.4 °F 43% 30.34 in 10.0 mi SSW 13.8 mph 18.4 mph N/A   Clear
10:55 AM 51.8 °F - 28.4 °F 41% 30.32 in 10.0 mi SW 15.0 mph 25.3 mph N/A   Clear
11:15 AM 51.8 °F - 26.6 °F 38% 30.31 in 10.0 mi SSW 17.3 mph 24.2 mph N/A   Clear
11:35 AM 53.6 °F - 26.6 °F 35% 30.30 in 10.0 mi SW 18.4 mph 23.0 mph N/A   Clear
11:55 AM 53.6 °F - 26.6 °F 35% 30.29 in 10.0 mi SW 13.8 mph 25.3 mph N/A   Clear
12:15 PM 55.4 °F - 26.6 °F 33% 30.28 in 10.0 mi SW 13.8 mph 21.9 mph N/A   Clear
12:35 PM 55.4 °F - 26.6 °F 33% 30.26 in 10.0 mi SSW 15.0 mph 20.7 mph N/A   Clear
12:55 PM 55.4 °F - 26.6 °F 33% 30.24 in 10.0 mi SSW 12.7 mph 23.0 mph N/A   Clear
1:15 PM 57.2 °F - 26.6 °F 31% 30.22 in 10.0 mi SSW 11.5 mph 21.9 mph N/A   Clear
1:35 PM 57.2 °F - 26.6 °F 31% 30.20 in 10.0 mi SW 12.7 mph 20.7 mph N/A   Clear
1:55 PM 57.2 °F - 26.6 °F 31% 30.18 in 10.0 mi SSE 10.4 mph 19.6 mph N/A   Clear
2:15 PM 55.4 °F - 33.8 °F 44% 30.17 in 10.0 mi SSE 12.7 mph - N/A   Clear
2:35 PM 53.6 °F - 35.6 °F 51% 30.16 in 10.0 mi South 11.5 mph 17.3 mph N/A   Clear
2:55 PM 53.6 °F - 35.6 °F 51% 30.16 in 10.0 mi South 9.2 mph - N/A   Clear
3:15 PM 53.6 °F - 35.6 °F 51% 30.15 in 10.0 mi South 9.2 mph - N/A   Clear
3:35 PM 53.6 °F - 35.6 °F 51% 30.15 in 10.0 mi South 11.5 mph - N/A   Clear
3:55 PM 53.6 °F - 33.8 °F 47% 30.15 in 10.0 mi South 13.8 mph 18.4 mph N/A   Partly Cloudy
4:15 PM 53.6 °F - 33.8 °F 47% 30.14 in 10.0 mi South 13.8 mph 20.7 mph N/A   Partly Cloudy
4:35 PM 51.8 °F - 33.8 °F 50% 30.13 in 10.0 mi South 11.5 mph 19.6 mph N/A   Scattered Clouds
4:55 PM 51.8 °F - 35.6 °F 54% 30.14 in 10.0 mi South 8.1 mph - N/A   Mostly Cloudy
5:15 PM 51.8 °F - 35.6 °F 54% 30.14 in 10.0 mi South 10.4 mph - N/A   Partly Cloudy
5:35 PM 51.8 °F - 33.8 °F 50% 30.14 in 10.0 mi South 4.6 mph - N/A   Clear
5:55 PM 51.8 °F - 33.8 °F 50% 30.14 in 10.0 mi South 8.1 mph - N/A   Clear
6:15 PM 51.8 °F - 33.8 °F 50% 30.14 in 10.0 mi SSW 9.2 mph 16.1 mph N/A   Clear
6:35 PM 50.0 °F - 33.8 °F 54% 30.14 in 10.0 mi SSW 9.2 mph - N/A   Clear
6:55 PM 50.0 °F - 33.8 °F 54% 30.14 in 10.0 mi SSW 10.4 mph - N/A   Clear
7:15 PM 48.2 °F - 33.8 °F 58% 30.14 in 10.0 mi SSW 8.1 mph - N/A   Clear
7:35 PM 48.2 °F - 33.8 °F 58% 30.13 in 10.0 mi SSW 11.5 mph 16.1 mph N/A   Clear
7:55 PM 48.2 °F - 32.0 °F 54% 30.13 in 10.0 mi SSW 10.4 mph 16.1 mph N/A   Clear
8:15 PM 50.0 °F - 32.0 °F 50% 30.12 in 10.0 mi SSW 12.7 mph 18.4 mph N/A   Clear
8:35 PM 48.2 °F - 30.2 °F 50% 30.12 in 10.0 mi SSW 12.7 mph 18.4 mph N/A   Clear
8:55 PM 48.2 °F - 30.2 °F 50% 30.12 in 10.0 mi SW 10.4 mph 18.4 mph N/A   Partly Cloudy
9:15 PM 48.2 °F - 32.0 °F 54% 30.11 in 10.0 mi SSW 12.7 mph 17.3 mph N/A   Scattered Clouds
9:35 PM 48.2 °F - 30.2 °F 50% 30.11 in 10.0 mi SW 11.5 mph - N/A   Clear
9:55 PM 48.2 °F - 30.2 °F 50% 30.11 in 10.0 mi SW 11.5 mph - N/A   Clear
10:15 PM 48.2 °F - 30.2 °F 50% 30.11 in 10.0 mi WSW 10.4 mph - N/A   Clear
10:35 PM 48.2 °F - 32.0 °F 54% 30.11 in 10.0 mi SW 12.7 mph 19.6 mph N/A   Clear
10:55 PM 50.0 °F - 32.0 °F 50% 30.12 in 10.0 mi WSW 15.0 mph 20.7 mph N/A   Clear
11:15 PM 50.0 °F - 32.0 °F 50% 30.13 in 10.0 mi WSW 12.7 mph 19.6 mph N/A   Clear
11:35 PM 48.2 °F - 32.0 °F 54% 30.13 in 10.0 mi WSW 10.4 mph - N/A   Clear
11:55 PM 48.2 °F - 32.0 °F 54% 30.14 in 10.0 mi West 9.2 mph - N/A   Clear